Simultaneous Nadir Overpasses (SNOs) Predictions

Prediction of SNOs between FY3D and METOP-A Satellite Orbit:

Table of predicted SNOs for the next 14.0 days since TLE Epoch: 8/16/2019
Index Date (FY3D) Time (FY3D) Lat,Lon (FY3D) SZA (FY3D ) Date (METOP-A) Time (METOP-A) Lat,Lon (METOP-A) SZA (METOP-A ) Distance(km) Time Diff (sec)
1 08/28/2019 13:42:34 75.28, -38.86 65.96 08/28/2019 13:43:41 75.23, -36.06 65.73 79.78 67
2 08/28/2019 14:33:16 -75.21, 128.66 114.11 08/28/2019 14:34:24 -75.19, 131.16 114.30 70.90 68
3 08/28/2019 15:23:57 74.99, -63.38 65.65 08/28/2019 15:25:08 74.97, -62.13 65.53 36.23 71
4 08/28/2019 16:14:40 -74.97, 104.00 114.37 08/28/2019 16:15:52 -74.88, 104.96 114.53 29.38 72
5 08/28/2019 17:05:21 74.74, -88.06 65.39 08/28/2019 17:06:34 74.76, -88.04 65.38 1.55 73
6 08/28/2019 17:56:05 -74.77, 79.18 114.57 08/28/2019 17:57:16 -74.77, 79.31 114.60 3.64 71
7 08/28/2019 18:46:50 74.74,-113.41 65.40 08/28/2019 18:47:56 74.74,-113.43 65.39 0.69 66
8 08/28/2019 19:37:34 -74.76, 53.83 114.56 08/28/2019 19:38:38 -74.75, 53.92 114.59 2.97 64
9 08/28/2019 20:28:19 74.73,-138.76 65.42 08/28/2019 20:29:18 74.72,-138.82 65.40 1.81 59
10 08/28/2019 21:19:03 -74.76, 28.48 114.54 08/28/2019 21:20:00 -74.73, 28.53 114.58 3.02 57
11 08/28/2019 22:09:48 74.72,-164.12 65.44 08/28/2019 22:10:40 74.70,-164.21 65.41 3.29 52
12 08/28/2019 23:00:31 -74.70, 3.26 114.58 08/28/2019 23:01:22 -74.71, 3.15 114.57 3.69 51
13 08/28/2019 23:51:17 74.71, 170.53 65.45 08/28/2019 23:52:01 74.73, 170.54 65.46 2.35 44
14 08/29/2019 00:42:01 -74.74, -22.22 114.51 08/29/2019 00:42:43 -74.75, -22.11 114.52 3.39 42
15 08/29/2019 01:32:46 74.71, 145.18 65.47 08/29/2019 01:33:23 74.72, 145.15 65.47 1.51 37
16 08/29/2019 02:23:30 -74.73, -47.58 114.49 08/29/2019 02:24:05 -74.73, -47.50 114.51 2.38 35
17 08/29/2019 03:14:15 74.70, 119.83 65.49 08/29/2019 03:14:45 74.70, 119.76 65.48 1.94 30
18 08/29/2019 04:04:59 -74.73, -72.93 114.47 08/29/2019 04:05:27 -74.71, -72.88 114.50 2.13 28
19 08/29/2019 04:55:44 74.69, 94.48 65.50 08/29/2019 04:56:07 74.68, 94.37 65.49 3.16 23
20 08/29/2019 05:46:28 -74.72, -98.28 114.46 08/29/2019 05:46:49 -74.69, -98.27 114.49 2.83 21
21 08/29/2019 06:37:13 74.69, 69.12 65.52 08/29/2019 06:37:28 74.71, 69.12 65.55 3.21 15
22 08/29/2019 07:27:57 -74.71,-123.63 114.44 08/29/2019 07:28:10 -74.73,-123.53 114.44 3.39 13
23 08/29/2019 08:18:42 74.68, 43.77 65.54 08/29/2019 08:18:50 74.70, 43.73 65.56 2.39 8
24 08/29/2019 09:09:26 -74.71,-148.98 114.42 08/29/2019 09:09:32 -74.71,-148.91 114.43 2.07 6
25 08/29/2019 10:00:11 74.67, 18.42 65.55 08/29/2019 10:00:12 74.68, 18.34 65.57 2.42 1
26 08/29/2019 10:50:55 -74.70,-174.34 114.41 08/29/2019 10:50:54 -74.69,-174.30 114.42 1.31 1
27 08/29/2019 11:41:40 74.66, -6.93 65.57 08/29/2019 11:41:34 74.66, -7.04 65.58 3.28 6
28 08/29/2019 12:32:24 -74.69, 160.31 114.39 08/29/2019 12:32:16 -74.67, 160.31 114.41 1.94 8
29 08/29/2019 13:23:10 74.71, -32.42 65.64 08/29/2019 13:22:55 74.69, -32.30 65.63 3.62 15
30 08/29/2019 14:13:53 -74.68, 134.96 114.37 08/29/2019 14:13:38 -74.66, 134.92 114.40 3.22 15
31 08/29/2019 15:04:38 74.65, -57.64 65.60 08/29/2019 15:04:17 74.68, -57.69 65.64 3.28 21
32 08/29/2019 15:55:22 -74.68, 109.61 114.36 08/29/2019 15:54:59 -74.69, 109.67 114.34 2.16 23
33 08/29/2019 16:46:07 74.64, -82.99 65.62 08/29/2019 16:45:39 74.66, -83.08 65.65 3.09 28
34 08/29/2019 17:36:51 -74.67, 84.25 114.34 08/29/2019 17:36:21 -74.67, 84.28 114.33 0.78 30
35 08/29/2019 18:27:36 74.64,-108.34 65.64 08/29/2019 18:27:01 74.64,-108.46 65.66 3.61 35
36 08/29/2019 19:18:20 -74.66, 58.90 114.32 08/29/2019 19:17:43 -74.65, 58.89 114.32 1.08 37
37 08/29/2019 20:09:06 74.68,-133.83 65.71 08/29/2019 20:08:22 74.67,-133.72 65.71 3.12 44
38 08/29/2019 20:59:49 -74.66, 33.55 114.31 08/29/2019 20:59:05 -74.64, 33.51 114.31 2.51 44
39 08/29/2019 21:50:35 74.67,-159.18 65.73 08/29/2019 21:49:44 74.66,-159.11 65.72 2.62 51
40 08/29/2019 22:41:18 -74.65, 8.20 114.29 08/29/2019 22:40:26 -74.67, 8.25 114.26 2.60 52
41 08/29/2019 23:32:04 74.66, 175.47 65.74 08/29/2019 23:31:06 74.64, 175.51 65.73 2.95 58
42 08/30/2019 00:22:47 -74.64, -17.16 114.27 08/30/2019 00:21:48 -74.65, -17.14 114.25 1.10 59
43 08/30/2019 01:13:33 74.66, 150.12 65.76 08/30/2019 01:12:28 74.62, 150.12 65.74 3.91 65
44 08/30/2019 02:04:16 -74.64, -42.51 114.26 08/30/2019 02:03:10 -74.63, -42.52 114.24 0.50 66
45 08/30/2019 02:55:02 74.65, 124.77 65.78 08/30/2019 02:53:49 74.65, 124.86 65.79 2.83 73
46 08/30/2019 03:45:45 -74.63, -67.86 114.24 08/30/2019 03:44:32 -74.62, -67.91 114.23 1.97 73
47 08/30/2019 04:36:27 74.45, 99.93 65.57 08/30/2019 04:35:15 74.44, 98.96 65.64 28.81 72
48 08/30/2019 05:27:10 -74.43, -92.70 114.44 08/30/2019 05:25:58 -74.40, -93.80 114.38 33.04 72
49 08/30/2019 06:17:50 74.15, 75.33 65.26 08/30/2019 06:16:42 74.17, 72.96 65.45 71.97 68
50 08/30/2019 07:08:33 -74.13,-117.30 114.75 08/30/2019 07:07:25 -74.14,-119.80 114.57 75.88 68




NCC Satellite Simultaneous Nadir Overpasses (SNOs) Prediction Service
